[[{"header":{"parameterUnit":"m.s-1","parameterCategory":2,"la1":30.2991,"la2":30.254,"lo1":-89.0895,"lo2":-89.0444,"dy":0.0017,"dx":0.0017,"nx":28,"ny":28,"refTime":"2024-10-13T09:00:00:Z","depth":"0","parameterNumber":2,"parameterNumberName":"U-component_of_CURRENTS"},"data":[0,0,0,0,0,0,0,0,0,0,0,0,0,0,0,0,0,0,0,0,0,0,0,0,0,0,0,0,0,0,0,0,0,0,0,0,0,0,0,0,0,0,0,0,0,0,0,0,0,0,0,0,0,0,0,0,0,0,0.3495,0.3496,0,0.3531,0.3531,0.3531,0.3535,0.3535,0.3535,0.3535,0.3564,0.3565,0.3566,0,0,0,0,0,0,0,0,0,0,0,0,0,0.3427,0.3428,0.3495,0.3496,0.3496,0.3531,0.3531,0.3531,0.3536,0.3535,0.3535,0.3535,0.3564,0.3565,0.3566,0,0,0,0,0,0,0,0,0,0,0,0,0,0.3457,0.3428,0.3495,0.3504,0.3505,0.3531,0.3531,0.3532,0.3536,0.3535,0.3535,0.3535,0.3563,0.3565,0.3566,0.358,0,0,0.357,0.3571,0,0,0,0,0,0,0,0,0.3456,0.346,0.3502,0.3503,0.3505,0.353,0.3518,0.3548,0.3536,0.3522,0.3535,0.3535,0.3553,0.3556,0.356,0.3582,0.3583,0.357,0.3571,0.3572,0.3572,0,0,0,0,0,0,0,0.3453,0.3458,0.3507,0.3503,0.3504,0.3505,0.3509,0.3524,0.3537,0.3523,0.3524,0.3531,0.3554,0.3559,0.3561,0.3583,0.357,0.3572,0.3573,0.3573,0.3673,0.3675,0,0,0,0,0,0,0.3454,0.3456,0.3506,0.3509,0.3481,0.3507,0.3511,0.3521,0.3537,0.354,0.3531,0.3531,0.3557,0.3559,0.3562,0.3607,0.3572,0.3573,0.3574,0.3672,0.3674,0.3676,0,0,0,0,0,0,0.3452,0.3458,0.3505,0.3484,0.3491,0.3508,0.3519,0.3522,0.3529,0.3544,0.3546,0.3537,0.3557,0.356,0.3598,0.3607,0.3574,0.3575,0.367,0.3672,0.3675,0.3679,0,0,0,0,0,0,0.345,0.3457,0.3459,0.3485,0.3492,0.3518,0.352,0.3523,0.3535,0.3535,0.355,0.3552,0.3557,0.3596,0.3599,0.3608,0.3576,0.3667,0.3671,0.3674,0.3676,0.3681,0.3686,0,0,0,0,0,0.3447,0.3453,0.3459,0.3465,0.3496,0.3518,0.3521,0.3531,0.3536,0.3538,0.3566,0.3552,0.3619,0.3598,0.3602,0.3611,0.3666,0.367,0.3674,0.3674,0.368,0.3686,0,0,0,0,0,0,0.3418,0.3455,0.3462,0.3477,0.3495,0.3519,0.3522,0.3534,0.3557,0.356,0.3574,0.3579,0.3618,0.3622,0.3599,0.3655,0.364,0.3645,0.364,0.3645,0.365,0.3645,0.3577,0,0,0,0,0,0.3415,0.3434,0.3462,0.3473,0.348,0.3502,0.3512,0.3523,0.3549,0.3557,0.3572,0.3599,0.3638,0.3647,0.3674,0.3699,0.3729,0.3712,0.3716,0.372,0.3722,0.3791,0.3801,0.3689,0.3689,0.3689,0,0,0.3401,0.343,0.3435,0.3469,0.3481,0.35,0.3506,0.3522,0.3544,0.3558,0.3587,0.3616,0.3653,0.3689,0.3705,0.369,0.3771,0.3725,0.3727,0.3728,0.3796,0.3807,0.3816,0.3692,0.3692,0.3691,0,0,0.3388,0.3412,0.3418,0.3442,0.3471,0.3494,0.3501,0.3527,0.3542,0.358,0.3607,0.3648,0.3684,0.3718,0.3741,0.379,0.3799,0.3793,0.3801,0.3867,0.3877,0.3885,0.3944,0.3958,0.3787,0.3787,0.3787,0,0.3359,0.3389,0.3421,0.344,0.3459,0.3494,0.3505,0.3533,0.3571,0.3594,0.359,0.3682,0.3702,0.377,0.3786,0.3798,0.3835,0.377,0.3872,0.3881,0.3889,0.3948,0.3963,0.3788,0.3787,0.3787,0.3787,0,0.3359,0.3381,0.3388,0.3431,0.3456,0.3473,0.352,0.3549,0.3576,0.3606,0.367,0.3712,0.3765,0.378,0.3795,0.3868,0.3876,0.3874,0.385,0.39,0.396,0.3975,0.3789,0.3788,0.3788,0.3788,0,0,0.3274,0.3367,0.3363,0.3387,0.3454,0.347,0.3526,0.3579,0.3617,0.3657,0.3707,0.3775,0.3795,0.3825,0.3852,0.39,0.3992,0.3906,0.3909,0.3951,0.4141,0.4157,0.4175,0.4005,0.4007,0.401,0.416,0,0.3249,0.3292,0.3348,0.338,0.34,0.3469,0.352,0.358,0.3633,0.3691,0.3751,0.3809,0.3815,0.3843,0.3896,0.3969,0.4032,0.3951,0.4098,0.4102,0.4099,0.4194,0.4093,0.422,0.4175,0.4178,0.418,0,0.321,0.3255,0.3286,0.3371,0.3382,0.3413,0.3501,0.3554,0.366,0.3703,0.3775,0.3825,0.3915,0.3907,0.406,0.4008,0.408,0.4131,0.4138,0.416,0.4147,0.4164,0.425,0.4033,0.4204,0.4202,0.42,0,0.313,0.3198,0.3228,0.3254,0.3359,0.3386,0.3443,0.3547,0.36,0.3714,0.3759,0.387,0.393,0.4033,0.4146,0.4111,0.4314,0.4279,0.4368,0.437,0.4317,0.431,0.4199,0.4405,0.4405,0.4405,0.4404,0,0.3081,0.3097,0.3191,0.3207,0.3247,0.3331,0.3385,0.3468,0.3576,0.364,0.3752,0.3825,0.3965,0.4092,0.4179,0.4336,0.4353,0.4398,0.4422,0.4318,0.4309,0.4144,0.4065,0.441,0.4409,0.4408,0.4407,0,0.2991,0.3054,0.3092,0.3187,0.3212,0.324,0.3347,0.339,0.3507,0.3596,0.3635,0.3813,0.3992,0.4143,0.4333,0.4385,0.4406,0.4578,0.4447,0.4453,0.4302,0.423,0.4136,0.4021,0.4689,0.469,0.4691,0,0.2954,0.2964,0.3054,0.3074,0.3113,0.3169,0.321,0.3339,0.3394,0.3585,0.3621,0.3831,0.3978,0.4277,0.444,0.4636,0.4462,0.4627,0.4542,0.4302,0.4239,0.4077,0.3974,0.4477,0.4476,0.4476,0.4475,0,0.288,0.2911,0.2948,0.2995,0.3028,0.308,0.3149,0.3185,0.3339,0.3442,0.3598,0.3735,0.4049,0.4219,0.4491,0.4601,0.4379,0.4623,0.4406,0.4104,0.389,0.3788,0.4357,0.4471,0.4471,0.4472,0.4472,0.4472,0.2811,0.2822,0.2869,0.2903,0.2944,0.2981,0.2992,0.3083,0.3183,0.3314,0.3502,0.3647,0.3918,0.4306,0.4408,0.4411,0.4384,0.4287,0.4236,0.4105,0.3927,0.4493,0.461,0.4612,0.4613,0.4614,0.4614,0,0.2712,0.2742,0.2774,0.2816,0.2819,0.2882,0.2938,0.2936,0.301,0.318,0.3328,0.351,0.3719,0.3915,0.4082,0.3996,0.3869,0.3867,0.3563,0.3496,0.403,0.3946,0.3884,0.3884,0.3884,0.3885,0.3885,0.3885,0.2658,0.2656,0.2686,0.2675,0.2701,0.2679,0.2692,0.2716,0.2801,0.2886,0.2956,0.3099,0.3345,0.358,0.3547,0.3514,0.3206,0.3159,0.3072,0.3373,0.3404,0.3433,0.3328,0.3137,0.3137,0.2418,0.2412,0.2407]},{"header":{"parameterUnit":"m.s-1","parameterCategory":2,"la1":30.2991,"la2":30.254,"lo1":-89.0895,"lo2":-89.0444,"dy":0.0017,"dx":0.0017,"nx":28,"ny":28,"refTime":"2024-10-13T09:00:00:Z","depth":"0","parameterNumber":3,"parameterNumberName":"V-component_of_CURRENTS"},"data":[0,0,0,0,0,0,0,0,0,0,0,0,0,0,0,0,0,0,0,0,0,0,0,0,0,0,0,0,0,0,0,0,0,0,0,0,0,0,0,0,0,0,0,0,0,0,0,0,0,0,0,0,0,0,0,0,0,0,-0.0445,-0.0446,0,-0.046,-0.046,-0.046,-0.049,-0.0491,-0.0491,-0.0492,-0.0573,-0.0575,-0.0576,0,0,0,0,0,0,0,0,0,0,0,0,0,-0.0498,-0.0497,-0.0445,-0.0446,-0.0446,-0.046,-0.046,-0.046,-0.049,-0.0491,-0.0491,-0.0492,-0.0573,-0.0575,-0.0577,0,0,0,0,0,0,0,0,0,0,0,0,0,-0.0491,-0.0496,-0.0445,-0.0462,-0.0463,-0.046,-0.046,-0.046,-0.049,-0.0491,-0.0492,-0.0492,-0.0572,-0.0574,-0.0577,-0.0576,0,0,-0.0584,-0.0585,0,0,0,0,0,0,0,0,-0.0491,-0.0489,-0.0459,-0.0461,-0.0462,-0.0474,-0.0509,-0.0502,-0.049,-0.0481,-0.0492,-0.0493,-0.0545,-0.055,-0.0551,-0.0579,-0.0583,-0.0585,-0.0586,-0.0587,-0.0588,0,0,0,0,0,0,0,-0.0491,-0.0489,-0.0452,-0.0459,-0.0461,-0.0487,-0.0487,-0.0507,-0.051,-0.0481,-0.0483,-0.0484,-0.0547,-0.0548,-0.0553,-0.0584,-0.0585,-0.0587,-0.0588,-0.0589,-0.0623,-0.0623,0,0,0,0,0,0,-0.0484,-0.0488,-0.0451,-0.0452,-0.0478,-0.0485,-0.0485,-0.047,-0.0508,-0.0514,-0.0483,-0.0485,-0.0543,-0.055,-0.0556,-0.0548,-0.0587,-0.0589,-0.0591,-0.0624,-0.0623,-0.0622,0,0,0,0,0,0,-0.0485,-0.048,-0.0451,-0.0472,-0.047,-0.0483,-0.0466,-0.0469,-0.047,-0.0509,-0.0516,-0.0481,-0.0544,-0.0552,-0.0571,-0.0552,-0.0591,-0.0593,-0.0624,-0.0623,-0.0623,-0.0538,0,0,0,0,0,0,-0.0486,-0.048,-0.0469,-0.047,-0.0468,-0.0438,-0.0466,-0.0469,-0.0469,-0.0472,-0.0509,-0.0517,-0.0546,-0.0566,-0.0573,-0.0556,-0.0595,-0.0625,-0.0624,-0.0623,-0.0542,-0.0534,-0.0528,0,0,0,0,0,-0.0488,-0.047,-0.0468,-0.0464,-0.0451,-0.0437,-0.0438,-0.0453,-0.0468,-0.0459,-0.0489,-0.0516,-0.0564,-0.0568,-0.0576,-0.0559,-0.0626,-0.0624,-0.0623,-0.0545,-0.0536,-0.0528,0,0,0,0,0,0,-0.0493,-0.0471,-0.0469,-0.0447,-0.0437,-0.0442,-0.0438,-0.0446,-0.0461,-0.0469,-0.0509,-0.0518,-0.0526,-0.0556,-0.0559,-0.0567,-0.06,-0.06,-0.0537,-0.0529,-0.0523,-0.0521,-0.0597,0,0,0,0,0,-0.0485,-0.0463,-0.045,-0.0432,-0.0424,-0.0429,-0.0427,-0.0432,-0.0444,-0.0451,-0.0477,-0.0507,-0.0525,-0.0538,-0.056,-0.0564,-0.06,-0.056,-0.0553,-0.0547,-0.0551,-0.059,-0.0587,-0.0618,-0.0618,-0.0618,0,0,-0.0482,-0.0469,-0.0456,-0.0432,-0.0428,-0.0404,-0.043,-0.0419,-0.0407,-0.0459,-0.0458,-0.0483,-0.0521,-0.0523,-0.053,-0.0547,-0.0553,-0.0546,-0.054,-0.0548,-0.0588,-0.0585,-0.0583,-0.0617,-0.0617,-0.0617,0,0,-0.0461,-0.045,-0.042,-0.0406,-0.0391,-0.0389,-0.0382,-0.0378,-0.0385,-0.0383,-0.0417,-0.0432,-0.0461,-0.048,-0.0495,-0.0467,-0.0515,-0.0473,-0.0438,-0.0475,-0.0472,-0.0471,-0.0492,-0.0494,-0.0471,-0.0471,-0.0471,0,-0.0454,-0.0414,-0.0412,-0.0382,-0.0365,-0.0377,-0.0341,-0.0347,-0.0353,-0.0358,-0.0375,-0.0414,-0.044,-0.0448,-0.0435,-0.0451,-0.0479,-0.0462,-0.0465,-0.0465,-0.0465,-0.0488,-0.049,-0.0467,-0.0467,-0.0467,-0.0468,0,-0.041,-0.0376,-0.036,-0.0319,-0.0303,-0.0276,-0.0274,-0.0272,-0.0284,-0.0294,-0.0307,-0.0342,-0.037,-0.0372,-0.0395,-0.0401,-0.0422,-0.0449,-0.0483,-0.0457,-0.0482,-0.0486,-0.046,-0.0462,-0.0463,-0.0464,0,0,-0.0377,-0.0333,-0.0323,-0.0294,-0.0264,-0.0245,-0.0229,-0.0213,-0.0211,-0.023,-0.0229,-0.0256,-0.0287,-0.0306,-0.0336,-0.0363,-0.0374,-0.0401,-0.0405,-0.0417,-0.0446,-0.0414,-0.0416,-0.0405,-0.0405,-0.0406,-0.0457,0,-0.0331,-0.0268,-0.0256,-0.0193,-0.0154,-0.016,-0.0142,-0.0141,-0.0156,-0.0164,-0.0208,-0.022,-0.0259,-0.0268,-0.0301,-0.0358,-0.0384,-0.0357,-0.0476,-0.0479,-0.045,-0.0419,-0.0363,-0.04,-0.0461,-0.0462,-0.0462,0,-0.0273,-0.0239,-0.0172,-0.0123,-0.0107,-0.0081,-0.0059,-0.0045,-0.007,-0.0088,-0.0121,-0.016,-0.0196,-0.0235,-0.0327,-0.031,-0.0372,-0.0418,-0.0422,-0.0428,-0.0454,-0.0442,-0.0406,-0.0568,-0.0469,-0.0469,-0.0468,0,-0.0238,-0.0172,-0.012,-0.0101,-0.0056,-0.0037,-0.0018,-0.0024,-0.001,-0.0044,-0.0043,-0.011,-0.0128,-0.0225,-0.0308,-0.0328,-0.0407,-0.0451,-0.048,-0.0479,-0.0473,-0.0469,-0.0605,-0.0521,-0.0521,-0.0521,-0.0521,0,-0.0181,-0.0135,-0.0104,-0.0073,-0.0017,-0.0001,0.0042,0.0039,0.0042,0.0075,-0.0003,0.0012,-0.0127,-0.0184,-0.0289,-0.0379,-0.0396,-0.0468,-0.0489,-0.0439,-0.0431,-0.0607,-0.0705,-0.0523,-0.0522,-0.0522,-0.0521,0,-0.0138,-0.0117,-0.0058,-0.0013,0.0004,0.004,0.0092,0.0119,0.0111,0.0151,0.0148,0.01,0.0046,-0.0083,-0.0218,-0.0329,-0.0503,-0.0464,-0.0381,-0.0391,-0.0579,-0.0672,-0.0812,-0.0866,-0.0521,-0.0521,-0.0521,0,-0.011,-0.0076,-0.0021,0.0014,0.0039,0.009,0.0132,0.0148,0.0187,0.0224,0.0256,0.0221,0.0244,0.006,-0.0124,-0.0291,-0.0454,-0.0399,-0.043,-0.0575,-0.0696,-0.0753,-0.0793,-0.0388,-0.0387,-0.0385,-0.0384,0,-0.006,-0.0049,-0.0004,0.0069,0.0119,0.0181,0.0244,0.0295,0.0336,0.0405,0.0497,0.0527,0.0372,0.0271,0.0026,-0.0131,-0.049,-0.0379,-0.0563,-0.0624,-0.0665,-0.073,-0.0369,-0.0374,-0.0375,-0.0375,-0.0376,-0.0376,-0.003,0.0007,0.0062,0.0138,0.02,0.0295,0.0381,0.0478,0.0607,0.079,0.0748,0.0898,0.0634,0.0342,0.008,-0.0375,-0.0394,-0.0514,-0.062,-0.0669,-0.0708,-0.0307,-0.0315,-0.0315,-0.0316,-0.0317,-0.0317,0,0.0017,0.0065,0.0134,0.0236,0.0333,0.0346,0.048,0.0617,0.0837,0.1033,0.1183,0.1191,0.0857,0.0426,-0.0181,-0.0534,-0.0687,-0.0762,-0.0859,-0.0894,-0.0565,-0.0546,-0.0564,-0.0563,-0.0563,-0.0563,-0.0563,-0.0563,0.0046,0.0123,0.0168,0.0343,0.0424,0.059,0.0691,0.0918,0.111,0.1451,0.1617,0.1681,0.1321,0.0151,-0.065,-0.0853,-0.112,-0.1153,-0.1309,-0.1125,-0.1111,-0.1098,-0.1105,-0.1239,-0.124,-0.1562,-0.1566,-0.1569]}],[{"header":{"parameterUnit":"m.s-1","parameterCategory":2,"la1":30.2991,"la2":30.254,"lo1":-89.0895,"lo2":-89.0444,"dy":0.0017,"dx":0.0017,"nx":28,"ny":28,"refTime":"2024-10-13T09:00:00:Z","depth":"2","parameterNumber":2,"parameterNumberName":"U-component_of_CURRENTS"},"data":[0,0,0,0,0,0,0,0,0,0,0,0,0,0,0,0,0,0,0,0,0,0,0,0,0,0,0,0,0,0,0,0,0,0,0,0,0,0,0,0,0,0,0,0,0,0,0,0,0,0,0,0,0,0,0,0,0,0,0.2131,0.2132,0,0.2173,0.2172,0.2172,0.215,0.215,0.2149,0.2149,0.214,0.214,0.214,0,0,0,0,0,0,0,0,0,0,0,0,0,0.2001,0.2003,0.213,0.2132,0.2133,0.2173,0.2172,0.2172,0.215,0.215,0.2149,0.2149,0.214,0.214,0.214,0,0,0,0,0,0,0,0,0,0,0,0,0,0.2044,0.2003,0.213,0.2132,0.2134,0.2173,0.2172,0.2172,0.215,0.215,0.2149,0.2148,0.214,0.214,0.214,0.2153,0,0,0.2141,0.2141,0,0,0,0,0,0,0,0,0.2041,0.2047,0.2131,0.2132,0.2134,0.2162,0.2124,0.2166,0.215,0.2135,0.2149,0.2148,0.2148,0.2148,0.2146,0.2153,0.2153,0.2141,0.2141,0.2141,0.2141,0,0,0,0,0,0,0,0.2038,0.2046,0.2139,0.2133,0.2134,0.2122,0.2127,0.2131,0.2138,0.2137,0.2137,0.2155,0.2147,0.2146,0.2146,0.2152,0.2141,0.2141,0.2141,0.2141,0.2239,0.2242,0,0,0,0,0,0,0.2052,0.2043,0.2138,0.2141,0.2094,0.2125,0.213,0.2147,0.2139,0.214,0.2155,0.2154,0.2146,0.2146,0.2146,0.2206,0.2141,0.2141,0.2141,0.2237,0.224,0.2243,0,0,0,0,0,0,0.2049,0.206,0.2136,0.2099,0.2109,0.2129,0.2148,0.2149,0.2158,0.2155,0.2153,0.2166,0.2146,0.2145,0.2172,0.2203,0.2141,0.2141,0.2234,0.2238,0.2241,0.2297,0,0,0,0,0,0,0.2045,0.2058,0.2073,0.21,0.2112,0.2163,0.2149,0.215,0.2173,0.2171,0.2164,0.2161,0.2145,0.2172,0.2172,0.2202,0.2141,0.2231,0.2236,0.224,0.2292,0.2302,0.2311,0,0,0,0,0,0.204,0.2057,0.2073,0.2085,0.2132,0.2165,0.2168,0.2175,0.2175,0.218,0.2189,0.2162,0.2202,0.2174,0.2174,0.2205,0.2229,0.2234,0.224,0.2288,0.23,0.2311,0,0,0,0,0,0,0.2001,0.2059,0.2076,0.2108,0.2141,0.2164,0.2174,0.2187,0.2197,0.2195,0.2187,0.2186,0.2224,0.2215,0.2184,0.2252,0.2214,0.222,0.2251,0.2263,0.2272,0.2294,0.2142,0,0,0,0,0,0.2006,0.2034,0.2085,0.211,0.213,0.2157,0.2173,0.2182,0.2201,0.2204,0.2206,0.222,0.2247,0.2254,0.2266,0.2297,0.2335,0.2322,0.2332,0.234,0.2361,0.2462,0.2483,0.2261,0.2261,0.2261,0,0,0.1998,0.2035,0.2051,0.2105,0.2127,0.2163,0.2162,0.219,0.2222,0.2203,0.2236,0.2249,0.2266,0.2304,0.232,0.2297,0.2423,0.2347,0.2353,0.2371,0.247,0.2492,0.2511,0.2265,0.2264,0.2264,0,0,0.1997,0.2031,0.2057,0.2091,0.2142,0.2165,0.2181,0.2218,0.2234,0.2272,0.2282,0.2327,0.2339,0.2375,0.2392,0.2467,0.2473,0.2464,0.2523,0.262,0.2639,0.2657,0.2731,0.2755,0.2465,0.2465,0.2465,0,0.1989,0.2033,0.2066,0.2103,0.214,0.2173,0.2211,0.2238,0.2278,0.2315,0.2287,0.2383,0.2382,0.2477,0.2496,0.2489,0.2537,0.247,0.2633,0.2651,0.2668,0.274,0.2765,0.2468,0.2468,0.2468,0.2467,0,0.201,0.2051,0.2067,0.2133,0.217,0.2207,0.2263,0.2302,0.2327,0.2364,0.2453,0.2472,0.2536,0.2543,0.2534,0.2661,0.2655,0.2634,0.26,0.2693,0.2763,0.2788,0.2473,0.2472,0.2471,0.247,0,0,0.1988,0.2069,0.2077,0.2115,0.2194,0.2225,0.2298,0.2382,0.2447,0.2485,0.258,0.2632,0.2657,0.2683,0.2696,0.2771,0.2915,0.2751,0.2754,0.2818,0.3129,0.3029,0.3046,0.2923,0.2927,0.2931,0.3129,0,0.2001,0.2066,0.2111,0.2178,0.2222,0.2289,0.2358,0.2437,0.25,0.2592,0.2659,0.2736,0.2708,0.2746,0.2825,0.2893,0.2985,0.2863,0.3035,0.3041,0.2935,0.3073,0.2738,0.2877,0.3153,0.3157,0.316,0,0.2018,0.2062,0.2127,0.2222,0.2248,0.2294,0.2425,0.2489,0.2632,0.2686,0.2793,0.2841,0.2972,0.2922,0.3117,0.3041,0.3101,0.3146,0.3154,0.3062,0.2988,0.2832,0.2913,0.3202,0.3199,0.3196,0.3193,0,0.1994,0.2078,0.2129,0.2161,0.227,0.2319,0.2383,0.2518,0.2586,0.2756,0.2817,0.2982,0.3046,0.3177,0.3257,0.3207,0.3463,0.3401,0.3382,0.3374,0.3124,0.3086,0.357,0.3569,0.3569,0.3568,0.3568,0,0.2003,0.2043,0.2116,0.2148,0.221,0.23,0.2392,0.2488,0.2633,0.273,0.2853,0.296,0.3112,0.3255,0.3336,0.3443,0.3537,0.3436,0.3438,0.3131,0.3094,0.3392,0.3369,0.3576,0.3574,0.3573,0.3571,0,0.1965,0.2025,0.2075,0.2171,0.22,0.2239,0.2358,0.2432,0.2573,0.2709,0.2764,0.2967,0.3172,0.3322,0.3539,0.351,0.3645,0.366,0.3279,0.3233,0.3471,0.3449,0.3668,0.3667,0.3666,0.3665,0.3664,0,0.1952,0.1977,0.2052,0.2073,0.211,0.2179,0.2237,0.2385,0.2466,0.2711,0.2773,0.301,0.3135,0.3404,0.3424,0.3561,0.371,0.3351,0.319,0.3512,0.3492,0.3471,0.3451,0.2885,0.2878,0.2872,0.2867,0,0.1905,0.1927,0.1953,0.2005,0.2049,0.2105,0.2197,0.2248,0.2443,0.2555,0.2743,0.2861,0.3052,0.3035,0.3184,0.3221,0.3295,0.3234,0.3719,0.2897,0.2785,0.2761,0.2765,0.2815,0.282,0.2824,0.2827,0.2829,0.1837,0.1831,0.1871,0.1919,0.1974,0.2033,0.2054,0.2171,0.228,0.2399,0.2563,0.2635,0.269,0.2726,0.2746,0.2789,0.2988,0.2909,0.2923,0.2943,0.2803,0.2693,0.268,0.2684,0.2688,0.2691,0.2694,0,0.173,0.1755,0.1793,0.1833,0.1861,0.1945,0.2031,0.201,0.2098,0.2208,0.2279,0.2109,0.2107,0.229,0.2192,0.2204,0.2126,0.223,0.2101,0.2153,0.2199,0.2016,0.1688,0.1686,0.1683,0.1681,0,0,0.1669,0.1657,0.1697,0.1719,0.1766,0.1748,0.1784,0.1807,0.1851,0.1816,0.184,0.188,0.2088,0.1793,0.1792,0.1747,0.1931,0.1689,0.2481,0.2372,0.2415,0.2569,0.2344,0,0,0,0,0]},{"header":{"parameterUnit":"m.s-1","parameterCategory":2,"la1":30.2991,"la2":30.254,"lo1":-89.0895,"lo2":-89.0444,"dy":0.0017,"dx":0.0017,"nx":28,"ny":28,"refTime":"2024-10-13T09:00:00:Z","depth":"2","parameterNumber":3,"parameterNumberName":"V-component_of_CURRENTS"},"data":[0,0,0,0,0,0,0,0,0,0,0,0,0,0,0,0,0,0,0,0,0,0,0,0,0,0,0,0,0,0,0,0,0,0,0,0,0,0,0,0,0,0,0,0,0,0,0,0,0,0,0,0,0,0,0,0,0,0,0.042,0.0419,0,0.0338,0.0337,0.0337,0.0272,0.0271,0.027,0.0269,0.0121,0.0118,0.0115,0,0,0,0,0,0,0,0,0,0,0,0,0,0.05,0.0499,0.042,0.0419,0.0417,0.0338,0.0337,0.0336,0.0272,0.0271,0.027,0.0269,0.0122,0.0119,0.0115,0,0,0,0,0,0,0,0,0,0,0,0,0,0.045,0.0499,0.0421,0.0373,0.0367,0.0338,0.0337,0.0336,0.0273,0.0271,0.027,0.0268,0.0123,0.0119,0.0115,0.0117,0,0,0.0101,0.0099,0,0,0,0,0,0,0,0,0.0453,0.0448,0.0381,0.0376,0.037,0.031,0.031,0.0258,0.0273,0.0313,0.0269,0.0267,0.0177,0.0168,0.0163,0.011,0.0104,0.01,0.0098,0.0096,0.0095,0,0,0,0,0,0,0,0.0457,0.0451,0.0392,0.038,0.0373,0.0347,0.0339,0.0301,0.0257,0.031,0.0304,0.0288,0.0173,0.0167,0.0158,0.0102,0.0101,0.0097,0.0094,0.0092,-0.0016,-0.0016,0,0,0,0,0,0,0.0461,0.0455,0.0394,0.0389,0.0404,0.0347,0.0338,0.0334,0.0258,0.0244,0.0289,0.0285,0.0176,0.0164,0.0153,0.0125,0.0096,0.0092,0.0089,-0.0016,-0.0016,-0.0016,0,0,0,0,0,0,0.0463,0.0457,0.0398,0.0416,0.0406,0.0347,0.0343,0.0333,0.03,0.0243,0.0228,0.0262,0.0174,0.0159,0.0117,0.012,0.009,0.0086,-0.0016,-0.0016,-0.0016,0.0087,0,0,0,0,0,0,0.0466,0.0459,0.0453,0.0416,0.0405,0.039,0.0344,0.0333,0.0292,0.0285,0.0215,0.0202,0.0172,0.0125,0.0113,0.0113,0.0082,-0.0016,-0.0016,-0.0016,0.0084,0.009,0.0096,0,0,0,0,0,0.047,0.0486,0.0454,0.0445,0.04,0.0391,0.0384,0.0339,0.0292,0.0298,0.0244,0.0202,0.0113,0.0122,0.0108,0.0107,-0.0015,-0.0016,-0.0016,0.0081,0.0089,0.0096,0,0,0,0,0,0,0.0522,0.0479,0.0443,0.0444,0.0416,0.0378,0.0373,0.0329,0.0291,0.0271,0.0209,0.0193,0.0157,0.0113,0.0124,0.0071,0.0038,0.0035,0.0116,0.0123,0.0129,0.015,0.0078,0,0,0,0,0,0.0527,0.0523,0.0479,0.0477,0.0463,0.0408,0.039,0.0358,0.0319,0.0298,0.0244,0.0185,0.015,0.0122,0.0085,0.0059,0.002,0.0043,0.0049,0.0055,0.0061,0.0021,0.0025,-0.0018,-0.0018,-0.0018,0,0,0.0539,0.0519,0.0511,0.0485,0.0456,0.0458,0.0395,0.0375,0.0366,0.0288,0.0255,0.0205,0.0147,0.0128,0.0105,0.0088,0.0045,0.0054,0.006,0.0063,0.0021,0.0026,0.003,-0.0018,-0.0018,-0.0018,0,0,0.0579,0.055,0.0558,0.0546,0.0506,0.0484,0.0472,0.0421,0.0389,0.0356,0.0298,0.0256,0.0186,0.0162,0.0137,0.0149,0.0082,0.0116,0.0162,0.0125,0.0129,0.0132,0.0091,0.0089,0.0116,0.0117,0.0117,0,0.0584,0.0595,0.056,0.0573,0.0565,0.0496,0.0508,0.048,0.0418,0.0399,0.0355,0.0263,0.0212,0.0197,0.0197,0.0166,0.0124,0.0147,0.0136,0.0138,0.0139,0.0096,0.0093,0.0121,0.0121,0.012,0.012,0,0.0632,0.0636,0.0647,0.0638,0.0636,0.0636,0.0597,0.0574,0.0513,0.0477,0.0429,0.0363,0.0302,0.0281,0.024,0.0221,0.0182,0.0155,0.0127,0.015,0.0103,0.0098,0.0128,0.0127,0.0125,0.0124,0,0,0.063,0.0668,0.0662,0.0681,0.0665,0.0673,0.067,0.065,0.0645,0.057,0.0559,0.0485,0.0419,0.0385,0.0321,0.029,0.0261,0.0223,0.0219,0.02,0.0166,0.0167,0.0161,0.0226,0.0226,0.0225,0.0131,0,0.0658,0.071,0.0716,0.076,0.0784,0.0753,0.0767,0.0744,0.0702,0.0681,0.0598,0.0552,0.0466,0.0423,0.0382,0.0297,0.0251,0.0288,0.013,0.0126,0.0139,0.0157,0.0095,0.0008,0.0126,0.0125,0.0124,0,0.0676,0.072,0.0767,0.0831,0.0835,0.0845,0.0855,0.0859,0.0826,0.0788,0.0727,0.0652,0.0581,0.0502,0.0364,0.0385,0.0273,0.0208,0.0202,0.0165,0.0118,0.0,-0.0006,0.0115,0.0116,0.0117,0.0117,0,0.0683,0.0746,0.0787,0.0804,0.0864,0.0866,0.0878,0.0871,0.088,0.0832,0.0822,0.073,0.066,0.0535,0.0376,0.0353,0.0245,0.0193,0.0091,0.0089,-0.0013,-0.0022,0.0089,0.0089,0.0089,0.0089,0.009,0,0.0708,0.0742,0.0786,0.0815,0.0867,0.0888,0.0923,0.092,0.0924,0.0952,0.0852,0.0859,0.0659,0.057,0.0421,0.0257,0.0262,0.0105,0.007,0.0021,0.0016,0.0067,0.0066,0.0086,0.0087,0.0087,0.0088,0,0.0716,0.0736,0.0801,0.0862,0.087,0.09,0.0947,0.0982,0.0968,0.0999,0.0974,0.0926,0.0819,0.0643,0.0457,0.0306,0.0162,0.0094,0.0055,0.0018,0.0011,0.0016,-0.0044,-0.0044,-0.0045,-0.0045,-0.0046,0,0.0726,0.0755,0.0825,0.085,0.0868,0.0911,0.0945,0.0974,0.1016,0.1062,0.1087,0.1005,0.0995,0.0748,0.0434,0.017,0.0183,-0.0038,-0.0091,0.0029,-0.0,0.0005,0.0011,-0.02,-0.0202,-0.0203,-0.0204,0,0.0768,0.0774,0.0838,0.0876,0.0905,0.0975,0.1019,0.1075,0.1125,0.1187,0.1282,0.1294,0.1017,0.0744,0.0368,0.0189,0.0004,-0.0071,0.0053,-0.0133,-0.012,-0.0147,-0.0137,-0.0216,-0.0214,-0.0214,-0.0213,-0.0213,0.0783,0.0827,0.0872,0.0913,0.0951,0.1016,0.1094,0.1178,0.1296,0.1375,0.1385,0.1371,0.1039,0.053,0.0242,-0.0097,-0.0084,-0.0211,-0.0207,-0.0202,-0.0179,-0.0165,-0.0266,-0.0266,-0.0265,-0.0264,-0.0264,0,0.0816,0.0843,0.0899,0.0973,0.1035,0.102,0.1134,0.1236,0.1405,0.1434,0.1481,0.1161,0.0845,0.0533,-0.0027,-0.0316,-0.0359,-0.0351,-0.0366,-0.0355,-0.0345,-0.0328,-0.0456,-0.0456,-0.0457,-0.0457,0,0,0.0829,0.0892,0.0928,0.1022,0.1057,0.1151,0.1218,0.1363,0.1423,0.1498,0.1441,0.1258,0.0896,0.0464,0.0067,-0.0189,-0.0192,-0.0233,-0.0067,-0.0033,-0.0018,-0.0271,-0.0233,0,0,0,0,0]}],[{"header":{"parameterUnit":"m.s-1","parameterCategory":2,"la1":30.2991,"la2":30.254,"lo1":-89.0895,"lo2":-89.0444,"dy":0.0017,"dx":0.0017,"nx":28,"ny":28,"refTime":"2024-10-13T09:00:00:Z","depth":"4","parameterNumber":2,"parameterNumberName":"U-component_of_CURRENTS"},"data":[0,0,0,0,0,0,0,0,0,0,0,0,0,0,0,0,0,0,0,0,0,0,0,0,0,0,0,0,0,0,0,0,0,0,0,0,0,0,0,0,0,0,0,0,0,0,0,0,0,0,0,0,0,0,0,0,0,0,0.0592,0.0593,0,0.06,0.0599,0.0599,0.0661,0.0663,0.0665,0.0666,0.0755,0.0755,0.0756,0,0,0,0,0,0,0,0,0,0,0,0,0,0.0546,0.0547,0.0592,0.0593,0.0593,0.06,0.0599,0.0599,0.066,0.0663,0.0665,0.0667,0.0754,0.0755,0.0756,0,0,0,0,0,0,0,0,0,0,0,0,0,0.0557,0.0547,0.0592,0.0628,0.0632,0.06,0.0599,0.0599,0.066,0.0663,0.0666,0.0668,0.0754,0.0755,0.0756,0.0702,0,0,0.0758,0.0758,0,0,0,0,0,0,0,0,0.0556,0.0558,0.0622,0.0625,0.063,0.0636,0.0616,0.0639,0.0659,0.0644,0.0666,0.067,0.0723,0.0727,0.0714,0.0706,0.071,0.0758,0.0759,0.0759,0.0759,0,0,0,0,0,0,0,0.0556,0.0558,0.059,0.0623,0.0627,0.0615,0.062,0.0619,0.0665,0.0646,0.0651,0.0659,0.0726,0.0713,0.0717,0.0711,0.0758,0.0759,0.0759,0.076,0.0859,0.0861,0,0,0,0,0,0,0.0565,0.0557,0.059,0.0591,0.0605,0.0614,0.062,0.0627,0.0664,0.0673,0.0656,0.0662,0.071,0.0716,0.072,0.0837,0.0759,0.076,0.076,0.0857,0.086,0.0862,0,0,0,0,0,0,0.0564,0.0568,0.059,0.0578,0.0581,0.0613,0.0621,0.0626,0.0657,0.0672,0.0682,0.0687,0.0713,0.0719,0.0774,0.0835,0.076,0.0761,0.0854,0.0858,0.0861,0.0957,0,0,0,0,0,0,0.0563,0.0567,0.0573,0.0579,0.0582,0.0614,0.0618,0.0624,0.0656,0.0664,0.07,0.0709,0.0715,0.0773,0.0775,0.0834,0.0761,0.0852,0.0856,0.086,0.0951,0.0963,0.0973,0,0,0,0,0,0.0561,0.0574,0.0573,0.0577,0.059,0.0615,0.0616,0.0644,0.0656,0.0679,0.0711,0.071,0.0801,0.0775,0.0776,0.0838,0.085,0.0855,0.0859,0.0946,0.0961,0.0973,0,0,0,0,0,0,0.0569,0.0581,0.0581,0.06,0.0621,0.0629,0.0651,0.0658,0.0693,0.0718,0.0723,0.0734,0.081,0.0801,0.0772,0.0879,0.083,0.0835,0.0895,0.0909,0.092,0.0942,0.0762,0,0,0,0,0,0.0566,0.0582,0.0591,0.0614,0.0624,0.0635,0.0647,0.0674,0.0703,0.0722,0.076,0.0794,0.0818,0.0848,0.0873,0.0915,0.0879,0.096,0.0971,0.0981,0.1001,0.0966,0.0975,0.0878,0.0878,0.0878,0,0,0.0572,0.0588,0.0594,0.0617,0.0632,0.0654,0.0652,0.0699,0.0743,0.0725,0.0817,0.0835,0.0838,0.0905,0.0938,0.0914,0.0993,0.0987,0.0995,0.1011,0.0972,0.0981,0.0989,0.0881,0.0881,0.088,0,0,0.0603,0.0613,0.0631,0.0649,0.0688,0.0698,0.072,0.0762,0.0811,0.0888,0.0885,0.0933,0.0998,0.1002,0.1007,0.1084,0.1051,0.1113,0.1191,0.1157,0.1165,0.117,0.1143,0.1146,0.1121,0.1121,0.1121,0,0.0617,0.0635,0.0645,0.0671,0.0701,0.0722,0.0762,0.0795,0.0865,0.0922,0.0952,0.1034,0.1041,0.1072,0.1125,0.111,0.1093,0.1138,0.117,0.1175,0.1179,0.115,0.1151,0.1126,0.1125,0.1125,0.1124,0,0.064,0.067,0.0694,0.0728,0.0763,0.0809,0.0856,0.0918,0.0993,0.1047,0.1151,0.1156,0.1214,0.1218,0.121,0.1249,0.1228,0.1183,0.1131,0.1195,0.116,0.116,0.1133,0.1132,0.113,0.1129,0,0,0.0655,0.0697,0.072,0.0753,0.0806,0.0852,0.0924,0.1011,0.1078,0.1179,0.1268,0.1326,0.1362,0.1368,0.1343,0.1321,0.1341,0.1295,0.1291,0.1262,0.1286,0.1245,0.124,0.1308,0.1308,0.1309,0.1251,0,0.0683,0.0741,0.0769,0.0857,0.0881,0.0938,0.1012,0.1104,0.1186,0.1281,0.1321,0.1416,0.1405,0.1452,0.143,0.1365,0.1347,0.1362,0.1236,0.1233,0.1182,0.1241,0.1311,0.125,0.125,0.125,0.125,0,0.0691,0.0737,0.0825,0.0924,0.0952,0.105,0.1178,0.1245,0.1352,0.1426,0.1505,0.1535,0.1568,0.1533,0.1468,0.1489,0.1424,0.1351,0.1346,0.1277,0.1192,0.1173,0.1249,0.1249,0.1249,0.1249,0.1249,0,0.0677,0.0783,0.0873,0.0904,0.1013,0.1137,0.1235,0.1346,0.1405,0.1547,0.1595,0.1638,0.1675,0.1602,0.1496,0.151,0.1369,0.1351,0.1238,0.1233,0.1241,0.1235,0.1293,0.1293,0.1293,0.1293,0.1293,0,0.0668,0.0747,0.0918,0.096,0.1128,0.122,0.1385,0.147,0.1569,0.1576,0.1709,0.1654,0.17,0.1614,0.1514,0.1376,0.1388,0.1273,0.1223,0.1284,0.1284,0.124,0.1235,0.1291,0.1291,0.1292,0.1292,0,0.0639,0.0721,0.084,0.1036,0.1119,0.1277,0.1476,0.1521,0.1664,0.1652,0.1708,0.1729,0.1645,0.1608,0.1467,0.1403,0.1257,0.1186,0.1262,0.1212,0.1152,0.1152,0.1122,0.112,0.1119,0.1118,0.1117,0,0.0633,0.0683,0.0901,0.098,0.1115,0.1329,0.1401,0.1574,0.1551,0.1581,0.1502,0.1545,0.1511,0.1326,0.1292,0.1188,0.1144,0.1124,0.1171,0.1184,0.1138,0.1141,0.1143,0.1114,0.1114,0.1113,0.1113,0,0.0614,0.0714,0.0798,0.0909,0.1062,0.1171,0.1287,0.1303,0.1362,0.1477,0.1335,0.1339,0.1253,0.122,0.1201,0.1068,0.1186,0.1108,0.1112,0.1156,0.1174,0.113,0.1134,0.1108,0.1109,0.1109,0.1109,0,0.0601,0.0654,0.0702,0.0848,0.0938,0.0954,0.1088,0.1065,0.1114,0.1169,0.1059,0.1084,0.114,0.114,0.1017,0.1028,0.1037,0.1035,0.1043,0.1049,0.106,0.1074,0.0949,0,0,0,0,0,0.0555,0.0549,0.0603,0.0703,0.0762,0.0815,0.0896,0.0989,0.1065,0.0943,0.1035,0.0932,0.0938,0.0939,0.0939,0.0973,0.1022,0.0971,0.1019,0.1079,0.1085,0.1109,0,0,0,0,0,0,0.0483,0.0497,0.0529,0.0513,0.0552,0.0575,0.0647,0.0727,0.0683,0.0788,0.0794,0.0897,0.0905,0.0923,0.0919,0.093,0.0952,0.1015,0.1015,0.1076,0.1081,0.1086,0.1112,0,0,0,0,0]},{"header":{"parameterUnit":"m.s-1","parameterCategory":2,"la1":30.2991,"la2":30.254,"lo1":-89.0895,"lo2":-89.0444,"dy":0.0017,"dx":0.0017,"nx":28,"ny":28,"refTime":"2024-10-13T09:00:00:Z","depth":"4","parameterNumber":3,"parameterNumberName":"V-component_of_CURRENTS"},"data":[0,0,0,0,0,0,0,0,0,0,0,0,0,0,0,0,0,0,0,0,0,0,0,0,0,0,0,0,0,0,0,0,0,0,0,0,0,0,0,0,0,0,0,0,0,0,0,0,0,0,0,0,0,0,0,0,0,0,-0.0001,-0.0001,0,-0.0051,-0.0052,-0.0053,-0.0089,-0.0089,-0.0089,-0.0089,-0.0183,-0.0185,-0.0187,0,0,0,0,0,0,0,0,0,0,0,0,0,0.0048,0.0047,-0.0001,-0.0002,-0.0002,-0.0051,-0.0052,-0.0053,-0.0089,-0.0089,-0.0089,-0.0089,-0.0182,-0.0185,-0.0188,0,0,0,0,0,0,0,0,0,0,0,0,0,0.0014,0.0047,-0.0001,-0.0025,-0.0028,-0.0051,-0.0052,-0.0053,-0.0089,-0.0089,-0.0089,-0.009,-0.0181,-0.0185,-0.0188,-0.0203,0,0,-0.0198,-0.02,0,0,0,0,0,0,0,0,0.0016,0.0012,-0.0021,-0.0024,-0.0027,-0.0063,-0.0069,-0.0105,-0.0089,-0.0067,-0.0089,-0.009,-0.0146,-0.0152,-0.0162,-0.0207,-0.0211,-0.0199,-0.0201,-0.0202,-0.0203,0,0,0,0,0,0,0,0.0018,0.0014,-0.0022,-0.0022,-0.0025,-0.0039,-0.0044,-0.0076,-0.0106,-0.0069,-0.0071,-0.0075,-0.0148,-0.0158,-0.0164,-0.0213,-0.0199,-0.0202,-0.0204,-0.0205,-0.0358,-0.036,0,0,0,0,0,0,0.0028,0.0016,-0.002,-0.0023,-0.0004,-0.0039,-0.0045,-0.0052,-0.0104,-0.0112,-0.0075,-0.0076,-0.0152,-0.016,-0.0168,-0.0242,-0.0202,-0.0205,-0.0207,-0.0356,-0.0358,-0.036,0,0,0,0,0,0,0.0029,0.0025,-0.0018,-0.0004,-0.001,-0.004,-0.0047,-0.0053,-0.0069,-0.0108,-0.0117,-0.0085,-0.0153,-0.0163,-0.021,-0.0244,-0.0207,-0.021,-0.0354,-0.0357,-0.0359,-0.0356,0,0,0,0,0,0,0.003,0.0025,0.0023,-0.0003,-0.001,-0.0042,-0.0047,-0.0053,-0.007,-0.0073,-0.012,-0.0129,-0.0154,-0.0205,-0.0214,-0.0248,-0.0213,-0.0351,-0.0355,-0.0358,-0.0353,-0.0358,-0.0363,0,0,0,0,0,0.0032,0.0028,0.0023,0.0019,-0.0013,-0.0042,-0.0048,-0.0071,-0.007,-0.0084,-0.0117,-0.0128,-0.0236,-0.0209,-0.0219,-0.0255,-0.0349,-0.0354,-0.0358,-0.0351,-0.0357,-0.0362,0,0,0,0,0,0,0.0044,0.0023,0.0017,0.0006,-0.0019,-0.0048,-0.0059,-0.007,-0.0105,-0.011,-0.0141,-0.0153,-0.0218,-0.0235,-0.0204,-0.0314,-0.0299,-0.0306,-0.0291,-0.0297,-0.0301,-0.0276,-0.0216,0,0,0,0,0,0.0048,0.004,0.0014,0.0003,-0.0006,-0.0031,-0.0044,-0.0062,-0.0093,-0.0108,-0.0144,-0.019,-0.0244,-0.0265,-0.0317,-0.0359,-0.0365,-0.0395,-0.0399,-0.0403,-0.0392,-0.0439,-0.0446,-0.0375,-0.0375,-0.0375,0,0,0.005,0.0037,0.0033,0.0006,-0.0012,-0.0032,-0.004,-0.0066,-0.0091,-0.0114,-0.0163,-0.021,-0.0262,-0.0324,-0.0354,-0.0339,-0.0426,-0.0408,-0.0411,-0.0397,-0.0444,-0.0451,-0.0456,-0.0378,-0.0378,-0.0377,0,0,0.0049,0.0039,0.0031,0.0011,-0.0017,-0.0036,-0.0042,-0.0079,-0.0106,-0.0154,-0.0191,-0.0248,-0.0317,-0.0364,-0.0395,-0.0453,-0.0456,-0.0479,-0.0469,-0.0516,-0.0521,-0.0526,-0.053,-0.0535,-0.0471,-0.0471,-0.0471,0,0.0054,0.0041,0.0022,0.0007,-0.0006,-0.0035,-0.0049,-0.0084,-0.0137,-0.0164,-0.0174,-0.0293,-0.0338,-0.0411,-0.0435,-0.0462,-0.047,-0.0438,-0.0518,-0.0523,-0.0528,-0.0531,-0.0537,-0.0472,-0.0471,-0.0471,-0.0471,0,0.0045,0.0034,0.0027,0.0002,-0.0019,-0.0037,-0.008,-0.0112,-0.0144,-0.0184,-0.0268,-0.033,-0.0385,-0.0431,-0.0447,-0.0515,-0.0502,-0.0523,-0.0493,-0.0534,-0.0536,-0.0541,-0.0472,-0.0472,-0.0472,-0.0472,0,0,0.0068,0.003,0.003,0.0024,-0.002,-0.0033,-0.0081,-0.013,-0.0152,-0.023,-0.0272,-0.0377,-0.0395,-0.0431,-0.047,-0.0519,-0.0561,-0.0525,-0.0527,-0.0507,-0.063,-0.0578,-0.0579,-0.0592,-0.0593,-0.0594,-0.0611,0,0.0072,0.0058,0.0029,0.0013,0.0005,-0.0036,-0.0069,-0.0123,-0.0175,-0.0228,-0.0314,-0.0359,-0.0399,-0.0406,-0.0472,-0.0549,-0.0579,-0.0552,-0.0611,-0.0612,-0.0545,-0.0586,-0.0599,-0.0616,-0.0617,-0.0618,-0.0619,0,0.0076,0.007,0.0064,0.0033,0.0027,0.0024,-0.0016,-0.0051,-0.014,-0.018,-0.0247,-0.0307,-0.0387,-0.0407,-0.0536,-0.0514,-0.0557,-0.0616,-0.0619,-0.0571,-0.0572,-0.0574,-0.0629,-0.0628,-0.0627,-0.0627,-0.0626,0,0.0117,0.0091,0.0097,0.0088,0.005,0.0057,0.0049,-0.0019,-0.0036,-0.0113,-0.0132,-0.0257,-0.0284,-0.0394,-0.05,-0.0513,-0.0638,-0.0669,-0.066,-0.0655,-0.0694,-0.0689,-0.0739,-0.0739,-0.0739,-0.0739,-0.0739,0,0.0133,0.0134,0.0138,0.0143,0.0173,0.0129,0.0156,0.0113,0.0068,0.0034,-0.0064,-0.0116,-0.0282,-0.038,-0.0487,-0.058,-0.0615,-0.0654,-0.0664,-0.0692,-0.0687,-0.0697,-0.0692,-0.074,-0.074,-0.074,-0.074,0,0.0162,0.0158,0.0174,0.0178,0.0199,0.0234,0.0271,0.0266,0.0229,0.0187,0.0179,0.0011,-0.0122,-0.0273,-0.045,-0.0526,-0.0641,-0.0653,-0.0636,-0.0645,-0.063,-0.0625,-0.0658,-0.0657,-0.0656,-0.0655,-0.0654,0,0.0166,0.0184,0.023,0.0277,0.0299,0.0362,0.039,0.0368,0.0344,0.0246,0.0199,0.009,-0.0033,-0.0218,-0.0403,-0.0566,-0.0589,-0.062,-0.0667,-0.0619,-0.0626,-0.0623,-0.0619,-0.0652,-0.0651,-0.0651,-0.0651,0,0.0183,0.0214,0.0235,0.0333,0.0399,0.0446,0.0477,0.0498,0.0425,0.0387,0.0264,0.0145,-0.0008,-0.0203,-0.0297,-0.0439,-0.0603,-0.0608,-0.0612,-0.0657,-0.0611,-0.0618,-0.0617,-0.0646,-0.0647,-0.0647,-0.0647,0,0.0208,0.0242,0.0289,0.0391,0.0458,0.05,0.0527,0.0501,0.0492,0.0378,0.033,0.0159,0.0039,-0.0137,-0.0263,-0.0358,-0.0406,-0.0439,-0.0453,-0.046,-0.041,-0.0325,-0.0275,0,0,0,0,0,0.0237,0.0289,0.0347,0.0449,0.0507,0.0549,0.0543,0.0539,0.0495,0.0435,0.0397,0.0254,0.0061,-0.0063,-0.0143,-0.0263,-0.0434,-0.0364,-0.0481,-0.0621,-0.0627,-0.0599,0,0,0,0,0,0,0.0258,0.0309,0.0344,0.0466,0.056,0.0602,0.0612,0.0573,0.0529,0.0473,0.037,0.028,0.0085,0.0155,-0.0115,-0.0161,-0.0241,-0.0473,-0.0475,-0.0618,-0.0623,-0.0627,-0.0601,0,0,0,0,0]}]]